Location: Melque
(41.0517°N, 4.4694°W)
Time: 04:17:26
(UTC+00:00)

Cosmos 2219 - Pass Details

Date: 11 December 2025
Orbit: 831 x 860 km, 71.1° (Epoch: 13 January)

Event Time Altitude Azimuth Distance (km) Brightness Sun altitude
Rises 18:06:47 0° 344° (NNW) 3,434 6.4 -14.1°
Reaches altitude 10° 18:09:31 10° 354° (N) 2,498 5.5 -14.6°
Maximum altitude 18:14:39 33° 57° (ENE) 1,424 3.9 -15.5°
Enters shadow 18:18:17 17° 111° (ESE) 2,036 4.7 -16.2°
